Regional Weather Roundup
Issued by NWS Sterling, VA

Home | Current Version | Previous Version | Text Only | Print | Product List | Glossary On
Versions: 1 2 3 4 5 6 7 8 9 10 11 12 13 14 15 16 17 18 19 20 21 22 23 24 25 26 27 28
000
ASUS41 KLWX 312110
RWRLWX

REGIONAL WEATHER ROUNDUP
NATIONAL WEATHER SERVICE BALTIMORE MD/WASHINGTON DC
500 PM EDT FRI OCT 31 2014

Note: "FAIR" indicates few or no clouds below 12,000 feet
with no significant weather and/or obstructions to visibility.
 TC=TEMPERATURE CELSIUS

 * =Non NWS site. Station does not report precipitation (e.g. rain,
    snow, etc.), thunder, or fog.

DCZ001-MDZ009-015-VAZ040>042-051-053>054-312200-
WASHINGTON METRO

CITY           SKY/WX    TMP DP  RH WIND       PRES   REMARKS
WASHINGTON NAT PTSUNNY   56  33  42 NE5       29.87F
DULLES         CLOUDY    52  34  50 E6        29.87S
ANDREWS AFB    CLOUDY    53  34  48 N5        29.86F
FT BELVOIR     CLOUDY    54  35  47 NE1       29.87S
QUANTICO       CLOUDY    55  36  48 NE8       29.87F
COLLEGE PARK*  PTSUNNY   52  34  50 CALM      29.87S
LEESBURG*      CLOUDY    54  37  54 E3        29.88S
MANASSAS*      CLOUDY    54  36  50 E3        29.86
GAITHERSBURG*  CLOUDY    52  34  50 NE6       29.90F

$$

MDZ006>007-011-014-312200-
BALTIMORE METRO

CITY           SKY/WX    TMP DP  RH WIND       PRES   REMARKS
BWI AIRPORT    PTSUNNY   53  35  50 E7        29.86F
MD SCIENCE CTR   N/A     55  32  41 MISG      29.87F
ANNAPOLIS      MOSUNNY   54  34  46 N6        29.87S
FORT MEADE*    CLOUDY    54  32  43 N3        29.89S

$$

MDZ012-015-019>023-312200-
MARYLAND EASTERN SHORE

CITY           SKY/WX    TMP DP  RH WIND       PRES   REMARKS
OCEAN CITY     CLOUDY    54  41  61 N7        29.85R
SALISBURY      CLOUDY    56  41  57 N7        29.86R
BAY BRIDGE AP*   N/A     55  32  41 NE6       29.87S
CAMBRIDGE*     MOSUNNY   55  34  44 NE6       29.85S
EASTON*        MOSUNNY   55  37  50 N6        29.89S

$$

MDZ017>025-312200-
SOUTHERN MARYLAND

CITY           SKY/WX    TMP DP  RH WIND       PRES   REMARKS
PATUXENT RIVER MOSUNNY   55  33  43 N10       29.86R
ST INIGOES     SUNNY     56  32  40 VRB3      29.86R
LEONARDTOWN*   MOSUNNY   52  32  46 CALM      29.88R

$$

MDZ003>005-312200-
NORTH CENTRAL MARYLAND

CITY           SKY/WX    TMP DP  RH WIND       PRES   REMARKS
FREDERICK*     CLOUDY    57  34  41 NE6       29.90S
HAGERSTOWN APT CLOUDY    52  34  50 E5        29.87R
WESTMINSTER*   CLOUDY    52  30  43 CALM      29.87S

$$

MDZ501>502-312200-
WESTERN MARYLAND

CITY           SKY/WX    TMP DP  RH WIND       PRES   REMARKS
OAKLAND*       CLOUDY    41  32  70 SE6       29.81S
CUMBERLAND*    CLOUDY    52  34  50 E5        29.88S

$$

VAZ025>031-312200-
SHENANDOAH VALLEY

CITY           SKY/WX    TMP DP  RH WIND       PRES   REMARKS
WINCHESTER*    CLOUDY    54  32  43 E5        29.85S
FRONT ROYAL*   CLOUDY    52  36  54 CALM      29.84S
LURAY*         CLOUDY    54  37  54 CALM      29.84S
NEW MARKET*    CLOUDY    50  37  61 NE3       29.83F
STAUNTON*      CLOUDY    51  35  54 CALM      29.84F
WAYNESBORO*    CLOUDY    50  35  56 SE3       29.82F

$$

WVZ021-048>050-054>055-312200-
EASTERN WEST VIRGINIA PANHANDLE

CITY           SKY/WX    TMP DP  RH WIND       PRES   REMARKS
MARTINSBURG    CLOUDY    52  35  52 E8        29.87R
PETERSBURG*    CLOUDY    51  31  45 CALM      29.84S

$$

VAZ036>039-050-312200-
CENTRAL FOOTHILLS

CITY           SKY/WX    TMP DP  RH WIND       PRES   REMARKS
CHARLOTTESVILL CLOUDY    54  35  48 E5        29.84S
CULPEPER*      CLOUDY    55  36  47 CALM      29.85F
ORANGE*        CLOUDY    55  37  50 N3        29.86S
GORDONSVILLE*  CLOUDY    54  37  53 CALM      29.84S
WARRENTON*     CLOUDY    55  42  61 NE6       29.85S

$$

VAZ055>057-312200-
NORTH AND CENTRAL PIEDMONT

CITY           SKY/WX    TMP DP  RH WIND       PRES   REMARKS
FREDERICKSBRG* MOSUNNY   57  38  48 E7        29.85S
STAFFORD*      MOSUNNY   55  33  44 CALM      29.89F

$$

NCZ024-NYZ072-PAZ021-071-VAZ022-071-312200-
OTHER REGIONAL OBSERVATIONS

CITY           SKY/WX    TMP DP  RH WIND       PRES   REMARKS
NEW YORK CITY  CLOUDY    54  38  54 VRB5      29.92S
PHILADELPHIA   MOCLDY    52  35  52 NE10      29.90R
PITTSBURGH     LGT RAIN  43  39  86 CALM      29.86S
ROANOKE        CLOUDY    53  36  52 SE8       29.83S
RICHMOND       PTSUNNY   58  36  43 NE8       29.85R
RALEIGH        CLOUDY    58  41  53 NE5       29.83S

$$

ANZ530>537-312200-
MARINE OBSERVATIONS

STATION/POSITION TIME  TEMP    WIND        PRES
                       AIR SEA DIR/SP/G
                 (UTC) (F)     (DEG/KT/KT) (MB)
THOMAS PT LIGHT  2100   53 61  360/  7/  9 1012.4F
BALT KEY BRIDGE  2100   54     140/  5/  6 1011.1S
COVE POINT       2100   53      10/ 10/ 13 1011.0R
LEWISETTA        2100   56 61   10/  4/  6 1010.6S
SOLOMONS ISLAND  2100      62                N/A
PINEY POINT      2100           20/  7/  7   N/A

$$




USA.gov is the U.S. government's official web portal to all federal, state and local government web resources and services.